THORAD AGENA D DEB, 4986

Orbit data source: Space-Track

THORAD AGENA D DEB, 4986 is space debris in SSO originally from a launch on Wed, 08 Apr 1970 UTC launched from the Air Force Western Test Range (AFWTR). Debris objects in space refer to the collection of defunct objects orbiting the Earth. Examples of debris include non-operational satellites, rocket bodies, and fragments generated from explosions, collisions, or faulty payload assembly.

Loading next visibility...
Identifier
4986, 1970-025HG
Orbit
SSO
Country
Flag of USUS
Related business
Manufacturer
Unknown
Mission
Spacecraft
Bus & Motor
Unknown
Mass
Unknown
Launch date (UTC)
1970-04-08 (56 years ago)
Launch vehicle
Unknown
Launch site
Air Force Western Test Range (AFWTR)
Object type
Payload
Rocket body
Debris
Shape & HBR
Unknown shape, 0.1 m
Radar Cross Section
Small (<0.1 m²)

Expand to show TLE details & history
Last TLE update: 8 hours ago

TLE from 8 hours ago
0 THORAD AGENA D DEB
1 04986U 70025HG  25353.14979189  .00000056  00000-0  17221-3 0  9994
2 04986  99.7723 240.5930 0054027 149.2027  16.1493 13.42899832726459
Epoch: 2025-12-19T03:35Z
TLE epoch observation values (Epoch: 2025-12-19T03:35:42.019Z)
Latitude
14.23284°
Longitude
-78.83622°
Altitude
1,061.758 km
Speed
7.341 km/s
True Right ascension
04h 12m 20s
True Declination
14° 09' 16"
Sunlit
Object was in full shadow at epoch
Visualization orbit readout
Latitude
Unknown
Longitude
Unknown
Altitude
Unknown
Speed
Unknown
Apparent Right ascension
Unknown
Apparent Declination
Unknown
Sunlit
N/A
Visualization observer readout
Local Sidereal Time
10:56:39
Azimuth
Unknown
Elevation
Unknown
Doppler factor
Unknown
Orbital elements
Apogee altitude
1,136.191 km
Perigee altitude
1,055.432 km
Semi-major axis
7,473.948 km
Eccentricity
0.0054
Inclination
99.7723°
RAAN
240.593°
Arg. of periapsis
149.2027°
True anomaly
16.32262°
Mean anomaly
16.1493°
Eccentric anomaly
16.23585°
Mean motion
3.35906 °/min
Orbital period
107.17 mins
BSTAR
0.00017221
Loading maneuver chart data...
Computing Atmospheric mass density...
Loading historical data...
Loading historical data...
Loading historical data...
Loading historical data...
Loading historical data...
Loading historical data...
Loading historical data...

Documentation

Showing up to 5 results
|